This demonstration page uses our WeatherBlox Daily Observations layout. Learn more.

Left ArrowRight Arrow

Hourly Observations for June 30, 2015

Temp ( °F °C ) Dew Point ( °F °C ) Humidity (%) Winds ( mph kmh ) Pressure ( in mb ) Visibility ( mi km ) Precip ( " mm )
12:59 am 00:59 Mostly Clear 73 22.8 69 20.6 87 87 SSE 6 9 29.98 1015 10 16 0.00 0.00
1:59 am 01:59 Clear 73 22.8 69 20.6 87 87 SSE 7 11 29.96 1015 10 16 0.00 0.00
2:59 am 02:59 Mostly Clear 85 29.3 76 24.2 74 74 SSE 5 7 29.94 1014 10 16 0.00 0.00
3:59 am 03:59 Partly Cloudy 72 22.2 70 21.1 94 94 SE 5 7 29.94 1014 10 16 0.00 0.00
4:59 am 04:59 Partly Cloudy 72 22.2 70 21.1 94 94 SSE 5 7 29.95 1014 9 14 0.00 0.00
5:59 am 05:59 Partly Cloudy 73 22.8 71 21.7 94 94 SSE 5 7 29.95 1014 8 13 0.00 0.00
6:59 am 06:59 Partly Cloudy 70 21.1 68 20 93 93 SSE 6 9 29.99 1016 8 13 0.00 0.00
7:59 am 07:59 Partly Cloudy 77 25 72 22.2 85 85 S 8 13 29.96 1015 9 14 0.00 0.00
8:59 am 08:59 Partly Cloudy 81 27.2 71 21.7 72 72 S 8 13 29.97 1015 9 14 0.00 0.00
9:59 am 09:59 Partly Cloudy 84 28.9 68 20 59 59 S 8 13 29.96 1015 9 14 0.00 0.00
10:59 am 10:59 Partly Cloudy 86 30 65 18.3 49 49 S 9 15 29.96 1014 10 16 0.00 0.00
11:59 am 11:59 Partly Cloudy 87 30.6 65 18.3 48 48 S 9 15 29.94 1014 9 14 0.00 0.00
12:59 pm 12:59 Mostly Cloudy 97 36.1 65 18.3 35 35 S 10 17 29.88 1012 10 16 0.00 0.00
1:59 pm 13:59 Partly Cloudy 90 32.2 65 18.3 44 44 S 14 22 29.91 1013 9 14 0.00 0.00
2:59 pm 14:59 Mostly Cloudy 90 32.2 66 18.9 45 45 SW 13 20 29.89 1012 9 14 0.00 0.00
3:59 pm 15:59 Mostly Cloudy 89 31.7 65 18.3 45 45 SW 10 17 29.87 1011 8 13 0.00 0.00
4:59 pm 16:59 Mostly Cloudy 89 31.7 67 19.4 48 48 S 12 19 29.85 1011 8 13 0.00 0.00
5:59 pm 17:59 Mostly Cloudy 76 24.7 69 20.7 79 79 SSW 10 17 29.99 1016 8 13 0.00 0.00
6:59 pm 18:59 Mostly Cloudy 87 30.6 67 19.4 51 51 S 15 24 29.85 1011 8 13 0.00 0.00
8:59 pm 20:59 Mostly Cloudy 84 28.9 68 20 59 59 SSW 10 17 29.88 1012 9 14 0.00 0.00
9:59 pm 21:59 Cloudy 79 26.1 63 17.2 58 58 SW 10 17 29.89 1012 10 16 0.00 0.00
10:33 pm 22:33 Cloudy 78 25.6 66 18.9 67 67 WNW 13 20 29.94 1014 9 14 0.00 0.00
10:59 pm 22:59 Cloudy 78 25.6 66 18.9 67 67 W 21 33 29.94 1014 9 14 0.00 0.00
11:59 pm 23:59 Cloudy with Light Rain 71 21.7 66 18.9 84 84 W 9 15 29.90 1013 7 11 0.00 0.03

Powered by AerisWeather